SCP
1 1 1 1 1 1 1 0 0 0 0 0 0 0 0 0 0 0 0 0 0 0 0 0 0 0 0 0 0 0 0 0 0 0 0 0 0 0 0 0 0 0 0
0 1 1 1 1 1 1 0 0 0 0 0 0 0 0 0 0 0 0 0 0 0 0 0 0 0 0 0 0 0 0 0 0 0 0 0 0 0 0 0 0 0 0
0 -0 0 1 1 1 0 0 0 0 0 0 0 0 0 0 0 0 0 0 0 0 0 0 0 0 0 0 0 0 0 0 0 0 0 0 0 0 0 0 0 0 0
0 0 0 1 1 1 0 0 0 0 0 0 0 0 0 0 0 0 0 0 0 0 0 0 0 0 0 0 0 0 0 0 0 0 0 0 0 0 0 0 0 0 0
-0 0 0 0 0 0 0 0 0 0 0 0 0 0 0 0 0 0 0 0 0 0 0 0 0 0 0 0 0 0 0 0 0 0 0 0 0 0 0 0 0 0 0
0 0 0 0 1 0 1 1 0 0 0 0 0 0 0 0 0 0 0 0 0 0 0 0 0 0 0 0 0 0 0 0 0 0 0 0 0 0 0 0 0 0 0
0 0 0 1 1 1 0 1 1 0 0 0 0 0 0 0 0 0 0 0 0 0 0 0 0 0 0 0 0 0 0 0 0 0 0 0 0 0 0 0 0 0 0
0 0 0 1 1 1 1 1 0 0 0 0 0 0 0 0 0 0 0 0 0 0 0 0 0 0 0 0 0 0 0 0 0 0 0 0 0 0 0 0 0 -0 -0
0 0 0 0 1 1 0 1 0 0 0 0 0 0 0 0 0 0 0 0 0 0 0 0 0 0 0 0 0 0 0 0 0 0 0 0 -0 -0 -0 -0 0 -0 -0
0 0 0 0 0 0 0 0 0 0 0 0 0 0 0 0 0 0 0 0 0 0 0 0 0 0 0 0 0 0 0 0 0 0 -0 -0 -0 -0 -0 -0 -0 0 0
0 1 0 0 0 0 0 0 0 0 0 0 0 0 0 0 0 0 0 0 0 0 0 0 0 0 0 0 0 0 -0 0 0 0 -0 0 0 -0 -0 -0 0 0 0
0 0 0 0 0 0 0 0 0 0 0 -0 0 0 0 0 0 0 0 0 0 0 0 0 0 0 0 0 0 -0 0 0 0 0 0 0 0 0 0 0 0 0 0
0 0 0 0 0 0 0 0 0 -0 0 0 0 0 0 0 0 0 0 0 0 0 0 0 0 0 0 0 0 0 0 0 0 0 0 0 0 0 0 0 0 0 0
0 0 0 0 0 -0 0 0 -0 0 0 0 0 0 0 0 0 0 0 0 0 0 0 0 0 -0 0 0 -0 -0 0 0 0 0 0 0 0 0 0 0 0 0 -0
0 0 0 0 0 0 -0 0 0 0 0 0 0 0 0 0 0 0 0 0 -0 -0 -0 0 0 0 0 0 0 0 0 0 0 0 0 0 0 0 0 0 0 0 0
0 0 0 0 0 0 0 0 0 0 0 0 0 0 0 0 0 0 0 -0 -0 -0 0 0 0 0 0 0 0 0 0 0 0 0 0 0 0 0 0 0 0 0 0
0 0 0 0 0 0 0 0 0 0 0 0 0 0 0 0 0 -0 0 0 -0 -0 -0 0 0 0 0 0 0 0 0 0 0 0 0 0 0 0 0 0 0 0 0
0 0 0 0 0 0 0 0 0 0 0 0 0 0 0 0 -0 0 0 0 0 0 0 0 0 0 0 0 0 0 0 0 0 0 0 0 0 0 0 0 0 0 0
0 0 0 0 0 0 0 0 0 0 0 0 0 0 0 0 0 0 -0 0 0 0 0 0 0 0 0 0 0 0 0 0 0 0 0 0 0 0 0 0 0 0 0
0 0 0 0 0 0 0 0 0 0 0 0 0 -0 0 0 0 0 0 0 0 0 0 0 0 0 0 0 0 0 0 0 0 0 0 0 0 0 0 0 0 0 0
0 0 0 0 0 0 0 0 0 0 0 0 0 0 0 0 0 0 0 0 0 0 0 0 0 0 0 0 0 0 0 0 0 0 0 0 0 0 0 0 0 0 0
0 0 0 0 0 0 0 0 0 0 0 0 0 0 0 0 0 0 0 0 0 0 0 0 0 0 0 0 0 0 0 0 0 0 0 0 0 0 0 0 0 0 0
0 0 0 0 0 0 0 0 0 0 0 0 0 0 0 0 0 0 0 0 0 0 0 0 0 0 0 0 0 0 0 0 0 0 0 0 0 0 0 0 0 0 0
0 0 0 0 0 0 0 0 0 0 0 0 -0 0 0 0 0 0 0 0 0 0 0 0 0 0 0 0 0 0 0 0 0 0 0 0 0 0 0 0 0 0 0
-0 -0 0 0 0 0 0 0 0 0 0 -0 -0 0 0 0 0 0 0 0 0 0 0 0 0 0 0 0 0 0 0 0 0 0 0 0 0 0 0 0 0 0 0
-0 0 0 0 0 0 0 0 0 0 0 0 0 0 0 0 0 0 0 0 0 0 0 0 0 0 0 0 0 0 0 0 0 0 0 0 -0 0 0 0 0 0 0
Wind_Speed_500mb
27 34 32 28 20 20 29 30 26 22 19 14 12 7 5 3 3 4 9 10 14 23 23 30 33 33 34 40 41 42 48 56 62 55 56 54 61 70 82 82 75 61 67
32 35 31 24 18 22 19 24 19 13 10 8 10 11 10 10 4 3 5 9 16 20 23 27 31 35 39 40 47 46 45 44 51 60 55 64 64 55 45 49 79 68 72
41 32 29 23 19 21 18 15 8 8 7 8 10 7 7 7 9 11 13 14 18 21 26 33 38 43 42 39 41 41 45 43 48 59 67 64 64 67 71 68 55 50 40
42 39 32 30 24 21 14 9 4 2 3 3 4 3 4 8 8 7 13 16 21 26 30 36 39 43 48 48 49 47 44 56 53 55 71 70 57 36 33 37 41 40 34
49 49 43 32 25 22 16 12 8 5 3 2 2 6 4 17 16 18 21 18 22 26 28 29 29 41 51 57 64 57 60 46 42 36 36 38 33 34 35 34 24 25 23
50 47 42 40 33 30 27 17 15 10 7 4 1 5 15 22 17 22 27 31 23 29 36 40 43 41 39 41 45 43 40 40 39 37 37 39 35 33 31 28 30 24 13
50 48 46 43 34 28 26 24 18 16 12 5 3 2 18 18 22 25 30 32 25 34 44 44 46 23 36 27 32 36 38 34 30 32 36 35 35 32 31 29 25 23 22
57 51 53 43 46 34 31 28 25 14 5 4 0 6 22 24 25 28 31 26 25 31 38 40 24 21 34 38 36 33 35 29 27 27 30 32 34 32 31 28 27 27 21
53 52 51 49 46 38 40 41 25 10 8 3 4 5 20 29 37 39 33 18 23 26 21 26 22 26 37 32 26 31 28 26 22 27 32 27 22 16 15 14 13 9 9
50 54 56 50 42 34 13 25 24 16 14 2 7 13 24 38 52 39 32 19 18 18 15 26 28 31 36 27 24 25 28 26 24 19 16 19 18 10 11 9 2 3 4
52 44 48 40 32 16 7 16 12 16 11 4 6 17 14 30 50 37 30 24 23 20 17 19 25 35 30 25 21 24 21 23 18 22 28 30 24 18 10 9 7 6 9
46 49 32 3 13 7 9 14 18 13 10 9 9 10 20 36 36 32 31 33 26 22 20 22 25 29 26 24 21 13 15 17 22 31 23 23 21 12 7 8 6 8 7
42 19 2 11 8 8 12 16 18 9 14 16 15 16 18 20 22 30 36 37 26 23 24 26 27 26 25 23 24 9 18 20 23 27 26 23 20 16 12 7 5 2 4
39 5 6 4 8 21 22 10 1 2 16 14 15 16 16 18 22 26 26 27 31 29 27 29 26 28 27 19 18 8 12 20 23 24 27 28 25 21 20 19 17 15 12
38 10 10 17 20 25 13 19 17 14 12 15 16 16 16 16 26 33 35 33 36 36 33 37 38 37 32 23 19 18 21 17 16 29 35 30 28 29 24 19 22 25 26
15 18 18 21 22 14 16 21 21 27 34 30 32 21 24 26 28 28 38 43 39 40 35 40 38 41 42 37 32 26 20 24 27 37 40 35 29 30 26 24 26 32 34
14 21 14 13 17 7 8 12 17 28 37 40 42 43 41 33 26 38 42 48 42 38 38 37 37 36 36 35 30 27 28 28 31 33 30 25 23 28 34 30 30 28 27
22 13 18 21 16 11 14 20 18 14 19 23 37 38 42 38 35 37 37 29 29 42 44 42 37 32 29 26 24 26 25 24 29 31 29 28 30 32 31 34 32 38 40
15 14 14 12 16 14 16 18 15 20 19 17 22 27 35 36 38 36 37 39 39 43 46 44 42 40 37 34 29 27 27 29 32 33 31 30 29 33 31 36 38 40 41
23 23 15 13 15 15 20 13 18 22 21 23 23 23 29 29 28 30 33 36 37 41 43 42 38 38 41 40 40 39 38 37 34 37 35 31 29 31 30 34 40 45 44
13 15 16 15 16 16 14 18 21 21 23 24 24 31 29 31 30 30 31 32 35 38 42 41 39 38 40 41 42 41 43 42 39 31 28 32 35 40 41 43 43 45 42
8 15 14 16 18 16 18 19 21 21 22 20 19 27 27 28 30 33 32 30 32 35 38 37 35 41 44 45 42 39 43 50 46 42 34 34 36 35 30 26 24 32 23
17 15 17 18 18 20 21 21 23 21 21 19 19 19 30 33 34 32 29 28 28 34 33 35 38 38 37 41 41 37 41 34 30 28 30 30 22 22 18 22 21 20 24
16 15 15 18 19 19 21 21 24 26 22 21 15 25 33 35 36 33 33 29 25 25 29 33 32 37 39 37 37 37 35 31 28 24 24 20 18 19 20 16 19 19 19
17 16 17 20 20 19 20 20 21 19 19 18 14 26 32 34 33 36 39 33 29 27 30 32 25 26 32 36 39 38 37 36 36 31 28 25 18 18 18 19 15 15 16
20 22 23 24 20 20 20 18 18 17 17 16 16 23 23 27 34 32 35 46 35 28 19 25 26 24 25 30 32 33 29 31 33 39 37 32 29 22 18 18 17 16 17
Wind_Direction_500mb
335 346 335 331 337 345 342 344 341 348 16 61 73 105 106 120 42 78 201 236 276 282 288 287 284 290 284 283 284 286 287 288 291 288 291 288 285 289 282 281 285 292 283
353 349 344 332 338 332 342 343 350 19 46 73 56 47 34 39 59 300 320 282 284 293 298 294 289 287 284 286 290 288 294 298 301 299 292 290 287 276 275 281 291 288 281
350 348 344 333 324 323 332 336 5 36 48 55 65 49 21 352 329 312 309 309 303 300 299 295 291 292 297 293 287 299 297 296 288 286 288 284 278 290 281 288 287 293 287
346 342 336 319 305 309 310 309 324 2 61 81 89 75 11 312 277 286 319 311 304 300 297 302 306 293 285 281 290 295 297 288 293 292 287 289 297 301 290 288 290 292 276
338 336 330 310 304 297 287 278 256 221 215 201 350 358 340 273 288 294 300 316 307 304 302 290 298 297 290 291 292 297 305 302 302 301 299 299 303 298 300 296 298 277 280
332 326 322 307 293 289 284 262 250 239 234 215 282 269 257 285 306 303 304 306 314 307 287 280 279 309 300 300 311 316 316 299 292 290 293 299 296 298 307 312 292 277 308
322 320 314 307 291 284 283 258 244 238 217 193 182 228 263 305 305 308 314 319 322 288 285 288 298 299 303 315 325 323 315 310 295 296 300 305 301 306 300 302 303 311 294
311 313 318 307 297 279 279 251 237 223 215 187 357 291 291 306 318 320 323 337 295 298 309 311 332 325 309 310 321 326 318 308 311 304 294 294 293 290 290 286 284 287 288
312 315 314 306 299 278 283 237 211 175 54 310 78 211 264 301 325 327 335 5 324 328 330 331 326 310 315 327 335 324 329 329 321 301 298 305 317 302 300 304 294 268 286
322 326 308 300 288 288 349 63 73 66 100 82 7 342 328 332 335 341 355 4 351 348 354 350 332 323 329 339 343 332 335 331 330 351 357 360 351 329 329 4 325 213 285
315 302 303 296 288 297 136 87 55 46 331 24 1 270 295 340 337 355 359 15 7 2 357 341 328 330 343 345 346 341 335 353 14 10 8 350 339 354 344 330 320 302 308
315 300 310 23 49 69 85 70 70 51 358 336 6 51 49 354 351 358 15 11 14 14 357 342 343 343 347 349 355 350 2 17 17 4 349 346 5 7 327 294 284 284 270
341 313 175 125 52 8 82 97 99 67 354 347 354 5 6 7 360 4 7 1 8 17 4 357 360 5 6 8 17 20 30 355 8 355 1 22 17 15 13 13 12 35 31
342 309 173 303 95 108 96 97 109 52 33 22 16 15 15 8 5 18 18 10 18 25 28 20 18 17 13 12 11 8 25 26 5 357 19 20 29 49 57 79 82 85 57
351 341 56 68 60 65 54 51 39 60 36 29 29 39 37 22 21 26 26 36 45 45 45 43 37 37 31 31 40 39 40 20 31 39 31 39 59 55 61 70 77 74 75
28 45 45 57 52 71 57 56 46 35 31 38 58 68 27 42 40 46 57 49 52 57 40 36 39 40 39 46 49 51 48 60 55 38 35 49 59 42 80 76 82 85 88
64 46 39 68 70 45 261 129 45 28 48 60 60 52 48 46 64 68 54 48 40 50 48 42 35 35 40 45 45 50 55 50 40 23 38 50 60 59 77 77 76 76 84
72 63 69 66 58 27 61 71 76 69 72 56 53 53 52 54 67 67 59 49 43 43 37 33 33 35 35 44 51 52 44 42 39 46 59 61 65 74 74 83 83 84 86
73 85 71 46 40 67 76 68 62 70 74 67 52 41 48 57 61 61 53 49 44 38 35 38 43 49 50 50 49 50 44 41 56 62 66 77 82 79 70 82 81 83 82
89 81 64 41 61 66 67 63 71 77 80 70 61 48 62 58 57 53 44 43 42 37 40 48 51 47 50 55 57 59 62 64 68 63 71 63 70 78 81 83 89 84 78
75 58 59 59 58 58 71 72 85 82 86 78 64 51 61 55 50 48 45 40 42 43 45 51 52 50 60 60 59 59 57 54 58 65 62 67 84 83 83 86 87 81 77
61 60 61 62 70 76 73 81 87 86 91 81 54 24 51 54 56 55 46 50 46 44 49 51 51 61 60 57 61 63 56 52 62 61 74 79 82 78 66 61 66 58 56
62 62 68 73 76 65 75 91 86 88 92 79 61 39 52 64 57 51 53 50 49 44 54 58 66 69 57 50 47 46 64 72 63 54 66 73 62 62 63 70 73 66 66
73 75 79 86 83 72 81 93 85 108 95 79 60 55 63 72 62 55 55 54 51 47 59 69 64 55 56 53 56 52 48 48 50 45 38 39 37 41 51 65 59 77 79
80 76 83 82 76 71 82 94 89 103 89 77 68 75 68 70 48 45 48 55 55 55 54 53 53 52 46 46 50 44 44 43 45 41 40 35 38 50 54 63 66 66 64
78 79 80 75 69 64 85 95 92 100 86 76 68 68 52 58 50 29 50 42 43 48 47 55 58 56 49 44 37 32 36 40 46 37 35 34 34 47 52 53 52 65 69
Wind_Speed_850mb
27 34 32 28 20 20 29 30 26 22 19 14 12 7 5 3 3 4 9 10 14 23 23 30 33 33 34 40 41 42 48 56 62 55 56 54 61 70 82 82 75 61 67
32 35 31 24 18 22 19 24 19 13 10 8 10 11 10 10 4 3 5 9 16 20 23 27 31 35 39 40 47 46 45 44 51 60 55 64 64 55 45 49 79 68 72
41 32 29 23 19 21 18 15 8 8 7 8 10 7 7 7 9 11 13 14 18 21 26 33 38 43 42 39 41 41 45 43 48 59 67 64 64 67 71 68 55 50 40
42 39 32 30 24 21 14 9 4 2 3 3 4 3 4 8 8 7 13 16 21 26 30 36 39 43 48 48 49 47 44 56 53 55 71 70 57 36 33 37 41 40 34
49 49 43 32 25 22 16 12 8 5 3 2 2 6 4 17 16 18 21 18 22 26 28 29 29 41 51 57 64 57 60 46 42 36 36 38 33 34 35 34 24 25 23
50 47 42 40 33 30 27 17 15 10 7 4 1 5 15 22 17 22 27 31 23 29 36 40 43 41 39 41 45 43 40 40 39 37 37 39 35 33 31 28 30 24 13
50 48 46 43 34 28 26 24 18 16 12 5 3 2 18 18 22 25 30 32 25 34 44 44 46 23 36 27 32 36 38 34 30 32 36 35 35 32 31 29 25 23 22
57 51 53 43 46 34 31 28 25 14 5 4 0 6 22 24 25 28 31 26 25 31 38 40 24 21 34 38 36 33 35 29 27 27 30 32 34 32 31 28 27 27 21
53 52 51 49 46 38 40 41 25 10 8 3 4 5 20 29 37 39 33 18 23 26 21 26 22 26 37 32 26 31 28 26 22 27 32 27 22 16 15 14 13 9 9
50 54 56 50 42 34 13 25 24 16 14 2 7 13 24 38 52 39 32 19 18 18 15 26 28 31 36 27 24 25 28 26 24 19 16 19 18 10 11 9 2 3 4
52 44 48 40 32 16 7 16 12 16 11 4 6 17 14 30 50 37 30 24 23 20 17 19 25 35 30 25 21 24 21 23 18 22 28 30 24 18 10 9 7 6 9
46 49 32 3 13 7 9 14 18 13 10 9 9 10 20 36 36 32 31 33 26 22 20 22 25 29 26 24 21 13 15 17 22 31 23 23 21 12 7 8 6 8 7
42 19 2 11 8 8 12 16 18 9 14 16 15 16 18 20 22 30 36 37 26 23 24 26 27 26 25 23 24 9 18 20 23 27 26 23 20 16 12 7 5 2 4
39 5 6 4 8 21 22 10 1 2 16 14 15 16 16 18 22 26 26 27 31 29 27 29 26 28 27 19 18 8 12 20 23 24 27 28 25 21 20 19 17 15 12
38 10 10 17 20 25 13 19 17 14 12 15 16 16 16 16 26 33 35 33 36 36 33 37 38 37 32 23 19 18 21 17 16 29 35 30 28 29 24 19 22 25 26
15 18 18 21 22 14 16 21 21 27 34 30 32 21 24 26 28 28 38 43 39 40 35 40 38 41 42 37 32 26 20 24 27 37 40 35 29 30 26 24 26 32 34
14 21 14 13 17 7 8 12 17 28 37 40 42 43 41 33 26 38 42 48 42 38 38 37 37 36 36 35 30 27 28 28 31 33 30 25 23 28 34 30 30 28 27
22 13 18 21 16 11 14 20 18 14 19 23 37 38 42 38 35 37 37 29 29 42 44 42 37 32 29 26 24 26 25 24 29 31 29 28 30 32 31 34 32 38 40
15 14 14 12 16 14 16 18 15 20 19 17 22 27 35 36 38 36 37 39 39 43 46 44 42 40 37 34 29 27 27 29 32 33 31 30 29 33 31 36 38 40 41
23 23 15 13 15 15 20 13 18 22 21 23 23 23 29 29 28 30 33 36 37 41 43 42 38 38 41 40 40 39 38 37 34 37 35 31 29 31 30 34 40 45 44
13 15 16 15 16 16 14 18 21 21 23 24 24 31 29 31 30 30 31 32 35 38 42 41 39 38 40 41 42 41 43 42 39 31 28 32 35 40 41 43 43 45 42
8 15 14 16 18 16 18 19 21 21 22 20 19 27 27 28 30 33 32 30 32 35 38 37 35 41 44 45 42 39 43 50 46 42 34 34 36 35 30 26 24 32 23
17 15 17 18 18 20 21 21 23 21 21 19 19 19 30 33 34 32 29 28 28 34 33 35 38 38 37 41 41 37 41 34 30 28 30 30 22 22 18 22 21 20 24
16 15 15 18 19 19 21 21 24 26 22 21 15 25 33 35 36 33 33 29 25 25 29 33 32 37 39 37 37 37 35 31 28 24 24 20 18 19 20 16 19 19 19
17 16 17 20 20 19 20 20 21 19 19 18 14 26 32 34 33 36 39 33 29 27 30 32 25 26 32 36 39 38 37 36 36 31 28 25 18 18 18 19 15 15 16
20 22 23 24 20 20 20 18 18 17 17 16 16 23 23 27 34 32 35 46 35 28 19 25 26 24 25 30 32 33 29 31 33 39 37 32 29 22 18 18 17 16 17
Wind_Direction_850mb
335 346 335 331 337 345 342 344 341 348 16 61 73 105 106 120 42 78 201 236 276 282 288 287 284 290 284 283 284 286 287 288 291 288 291 288 285 289 282 281 285 292 283
353 349 344 332 338 332 342 343 350 19 46 73 56 47 34 39 59 300 320 282 284 293 298 294 289 287 284 286 290 288 294 298 301 299 292 290 287 276 275 281 291 288 281
350 348 344 333 324 323 332 336 5 36 48 55 65 49 21 352 329 312 309 309 303 300 299 295 291 292 297 293 287 299 297 296 288 286 288 284 278 290 281 288 287 293 287
346 342 336 319 305 309 310 309 324 2 61 81 89 75 11 312 277 286 319 311 304 300 297 302 306 293 285 281 290 295 297 288 293 292 287 289 297 301 290 288 290 292 276
338 336 330 310 304 297 287 278 256 221 215 201 350 358 340 273 288 294 300 316 307 304 302 290 298 297 290 291 292 297 305 302 302 301 299 299 303 298 300 296 298 277 280
332 326 322 307 293 289 284 262 250 239 234 215 282 269 257 285 306 303 304 306 314 307 287 280 279 309 300 300 311 316 316 299 292 290 293 299 296 298 307 312 292 277 308
322 320 314 307 291 284 283 258 244 238 217 193 182 228 263 305 305 308 314 319 322 288 285 288 298 299 303 315 325 323 315 310 295 296 300 305 301 306 300 302 303 311 294
311 313 318 307 297 279 279 251 237 223 215 187 357 291 291 306 318 320 323 337 295 298 309 311 332 325 309 310 321 326 318 308 311 304 294 294 293 290 290 286 284 287 288
312 315 314 306 299 278 283 237 211 175 54 310 78 211 264 301 325 327 335 5 324 328 330 331 326 310 315 327 335 324 329 329 321 301 298 305 317 302 300 304 294 268 286
322 326 308 300 288 288 349 63 73 66 100 82 7 342 328 332 335 341 355 4 351 348 354 350 332 323 329 339 343 332 335 331 330 351 357 360 351 329 329 4 325 213 285
315 302 303 296 288 297 136 87 55 46 331 24 1 270 295 340 337 355 359 15 7 2 357 341 328 330 343 345 346 341 335 353 14 10 8 350 339 354 344 330 320 302 308
315 300 310 23 49 69 85 70 70 51 358 336 6 51 49 354 351 358 15 11 14 14 357 342 343 343 347 349 355 350 2 17 17 4 349 346 5 7 327 294 284 284 270
341 313 175 125 52 8 82 97 99 67 354 347 354 5 6 7 360 4 7 1 8 17 4 357 360 5 6 8 17 20 30 355 8 355 1 22 17 15 13 13 12 35 31
342 309 173 303 95 108 96 97 109 52 33 22 16 15 15 8 5 18 18 10 18 25 28 20 18 17 13 12 11 8 25 26 5 357 19 20 29 49 57 79 82 85 57
351 341 56 68 60 65 54 51 39 60 36 29 29 39 37 22 21 26 26 36 45 45 45 43 37 37 31 31 40 39 40 20 31 39 31 39 59 55 61 70 77 74 75
28 45 45 57 52 71 57 56 46 35 31 38 58 68 27 42 40 46 57 49 52 57 40 36 39 40 39 46 49 51 48 60 55 38 35 49 59 42 80 76 82 85 88
64 46 39 68 70 45 261 129 45 28 48 60 60 52 48 46 64 68 54 48 40 50 48 42 35 35 40 45 45 50 55 50 40 23 38 50 60 59 77 77 76 76 84
72 63 69 66 58 27 61 71 76 69 72 56 53 53 52 54 67 67 59 49 43 43 37 33 33 35 35 44 51 52 44 42 39 46 59 61 65 74 74 83 83 84 86
73 85 71 46 40 67 76 68 62 70 74 67 52 41 48 57 61 61 53 49 44 38 35 38 43 49 50 50 49 50 44 41 56 62 66 77 82 79 70 82 81 83 82
89 81 64 41 61 66 67 63 71 77 80 70 61 48 62 58 57 53 44 43 42 37 40 48 51 47 50 55 57 59 62 64 68 63 71 63 70 78 81 83 89 84 78
75 58 59 59 58 58 71 72 85 82 86 78 64 51 61 55 50 48 45 40 42 43 45 51 52 50 60 60 59 59 57 54 58 65 62 67 84 83 83 86 87 81 77
61 60 61 62 70 76 73 81 87 86 91 81 54 24 51 54 56 55 46 50 46 44 49 51 51 61 60 57 61 63 56 52 62 61 74 79 82 78 66 61 66 58 56
62 62 68 73 76 65 75 91 86 88 92 79 61 39 52 64 57 51 53 50 49 44 54 58 66 69 57 50 47 46 64 72 63 54 66 73 62 62 63 70 73 66 66
73 75 79 86 83 72 81 93 85 108 95 79 60 55 63 72 62 55 55 54 51 47 59 69 64 55 56 53 56 52 48 48 50 45 38 39 37 41 51 65 59 77 79
80 76 83 82 76 71 82 94 89 103 89 77 68 75 68 70 48 45 48 55 55 55 54 53 53 52 46 46 50 44 44 43 45 41 40 35 38 50 54 63 66 66 64
78 79 80 75 69 64 85 95 92 100 86 76 68 68 52 58 50 29 50 42 43 48 47 55 58 56 49 44 37 32 36 40 46 37 35 34 34 47 52 53 52 65 69